Location: Fouquenies
(49.4624°N, 2.0492°E)
Time: 12:20:55
(UTC+00:00)

ATLAS CENTAUR R/B - Pass Details

Date: 03 February 2023
Orbit: 450 x 653 km, 64.7° (Epoch: 19 March)

Event Time Altitude Azimuth Distance (km) Brightness Sun altitude
Rises 18:54:38 0° 265° (W) 2,965 6.7 -20.3°
Reaches altitude 10° 18:57:28 10° 281° (WNW) 2,035 5.3 -20.8°
Maximum altitude 19:00:59 21° 331° (NNW) 1,416 3.7 -21.3°
Enters shadow 19:03:30 14° 12° (NNE) 1,734 3.7 -21.8°
